Location: Unspecified
(41.1637°N, 24.2901°E)
Time: 18:34:30
(UTC+01:00)

ISS - Pass Details

Date: 13 January 2025
Orbit: 415 x 418 km, 51.6° (Epoch: 13 January)

Event Time Altitude Azimuth Distance (km) Brightness Sun altitude
Rises 18:00:06 0° 230° (SW) 2,343 1.1 -19.0°
Reaches altitude 10° 18:02:12 10° 229° (SW) 1,483 -0.1 -19.4°
Enters shadow 18:05:26 78° 166° (SSE) 428 -3.9 -20.0°
